Preview of NWS' New Version of Forecast
This preview is not operational and should not be used for support decisions.

Regional Weather Roundup (RWR)

Issued by Gray - Portland, ME (GYX)

                            
200 
ASUS41 KGYX 250005
RWRGYX
WEATHER ROUNDUP FOR MAINE AND NEW HAMPSHIRE
NATIONAL WEATHER SERVICE GRAY ME
800 PM EDT THU MAY 24 2018

MEZ002-005-006-010-012-015-018-020-021-024-026-027-029-250100-
MAINE
  
CITY           SKY/WX    TMP DP  RH WIND       PRES   REMARKS
PORTLAND       FAIR      54  48  80 S15G23    30.03F                  
6HR MIN TEMP:  54; 6HR MAX TEMP:  59;                                

SANFORD        FAIR      56  49  77 S3        30.04S                  
BAR HARBOR     FAIR      49  40  71 SW16G24   30.04S                  
WISCASSET      FAIR      53  46  77 S6        30.06S                  
6HR MIN TEMP:  53; 6HR MAX TEMP:  58;                                

ROCKLAND       FAIR      50  45  83 SW8       30.06S                  
FRYEBURG       FAIR      66  40  38 CALM      30.00S                  
6HR MIN TEMP:  65; 6HR MAX TEMP:  74;                                

LEWISTONAUBURN FAIR      55  48  77 S7        30.03R                  
AUGUSTA        FAIR      53  45  74 VRB6G16   30.03R                  
6HR MIN TEMP:  53; 6HR MAX TEMP:  65;                                

WATERVILLE     FAIR      54  45  71 S7        30.00R                  
BANGOR         MOCLDY    52  43  71 S12       30.00S                  
6HR MIN TEMP:  52; 6HR MAX TEMP:  63;                                

GREENVILLE       N/A     60  33  36 VRB5      29.94S                  
6HR MIN TEMP:  60; 6HR MAX TEMP:  65;                                

MILLINOCKET    CLOUDY    59  42  53 CALM      29.96R                  
6HR MIN TEMP:  59; 6HR MAX TEMP:  67;                                

HOULTON        CLOUDY    58  30  34 SW3       29.91S                  
6HR MIN TEMP:  58; 6HR MAX TEMP:  65;                                

PRESQUE ISLE   CLOUDY    58  27  30 SW5       29.91F                  
6HR MIN TEMP:  58; 6HR MAX TEMP:  64;                                

FRENCHVILLE    CLOUDY    57  28  33 W8        29.89F                  
6HR MIN TEMP:  56; 6HR MAX TEMP:  64;                                

CARIBOU        CLOUDY    58  26  29 W5        29.89F                  
6HR MIN TEMP:  58; 6HR MAX TEMP:  64;                                

$$

NHZ002-005-008-009-011-012-014-250100-
NEW HAMPSHIRE
  
CITY           SKY/WX    TMP DP  RH WIND       PRES   REMARKS
PORTSMOUTH     PTCLDY    57  48  71 SE6       30.02F                  
ROCHESTER      FAIR      58  51  78 S5        30.03R                  
6HR MIN TEMP:  58; 6HR MAX TEMP:  68;                                

NASHUA         FAIR      69  44  40 S3        30.02                   
MANCHESTER     FAIR      77  32  19 CALM      30.01R                  
6HR MIN TEMP:  75; 6HR MAX TEMP:  80;                                

CONCORD        FAIR      69  40  34 CALM      30.01S                  
6HR MIN TEMP:  69; 6HR MAX TEMP:  77;                                

LACONIA        FAIR      65  45  48 CALM      30.02S                  
PLYMOUTH       FAIR      64  44  47 CALM      30.01S                  
BERLIN         FAIR      64  37  36 CALM      30.01S                  
6HR MIN TEMP:  64; 6HR MAX TEMP:  70;                                

WHITEFIELD     FAIR      61  43  51 CALM      30.02F                  
6HR MIN TEMP:  61; 6HR MAX TEMP:  70;                                

JAFFREY          N/A     67  47  48 CALM      30.05S                  
6HR MIN TEMP:  67; 6HR MAX TEMP:  76;                                

KEENE          FAIR      70  47  43 S3        30.03S                  
LEBANON        FAIR      65  48  54 S5        30.00F                  
6HR MIN TEMP:  65; 6HR MAX TEMP:  78;                                

MT WASHINGTON  PTCLDY    41  25  52 NW45        N/A                   
6HR MIN TEMP:  37; 6HR MAX TEMP:  43;                                

$$

VTZ005-007-008-250100-
VERMONT
  
CITY           SKY/WX    TMP DP  RH WIND       PRES   REMARKS
ST JOHNSBURY     N/A     64  40  41 MISG      29.99F                  
MONTPELIER     FAIR      61  45  55 CALM      30.05F                  
BURLINGTON     FAIR      71  37  28 S3        29.99F                  
$$

MAZ007-012-024-CTZ003-RIZ002-NYZ038-NYZ072-250100-
SOUTHERN NEW ENGLAND AND NY
  
CITY           SKY/WX    TMP DP  RH WIND       PRES   REMARKS
BOSTON         FAIR      61  47  59 S18G26    30.06R                  
NANTUCKET      FAIR      50  48  93 S12       30.13S                  
PROVIDENCE     FAIR      56  50  80 S13       30.11S                  
HARTFORD       FAIR      76  41  28 SW5       30.04S                  
ALBANY         FAIR      73  45  36 W9        30.04R                  
NEW YORK CITY  FAIR      76  40  27 S10       30.06S                  
$$

ANZ081-ANZ082-ANZ150-NHZ014-MEZ023>029-250100-
COASTAL MARINE OBSERVATIONS
  
STATION/POSITION TIME  TEMP    WIND        PRES    WAVE
                       AIR SEA DIR/SP/G            HT/PER
                 (UTC) (F)     (DEG/KT/KT) (MB)    (FT/S)
MOUNT DESERT ROC 0000   48     190/ 19/ 20 1017.9S
MATINICUS ROCK   2300   50     190/ 18/ 19 1017.7F
ISLE OF SHOALS   2300   55     170/ 19/ 21 1017.0F
JEFFREYS LEDGE   2336      53                N/A     4/ 4
$$

.............KEY..............
   WCI - WIND CHILL
   TC  - TEMPERATURE IN CELSIUS
   VSB - VISIBILITY IN MILES
   HX  - HEAT INDEX
   FAIR- INDICATES FEW OR NO CLOUDS BELOW 12,000 FT, WITH NO 
         SIGNIFICANT WEATHER AND/OR OBSTRUCTIONS TO VISIBILITY.